Date String (YYYY-MM-DD hh:mm:ss) UTC,Instrument flags,absolute air pressure of the measurement (hPa),sample flow rate (lpm),inlet stack bypass flow (lpm),air temperature of the measurement (°C),ambient temperature measured by the external sensor (°C),aerosol sample conditioner tube jacket temperature (°C),OPC LED temperature (°C),internal box temperature (°C),relative humidity of the measurement (%),span deviation,mass concentration of particles derived from Lorenz-Mie calculation of OPC scattering (μg/m³),mass concentration of particles derived from Lorenz-Mie calculation of OPC scattering (μg/m³),mass concentration of particles derived from Lorenz-Mie calculation of OPC scattering (μg/m³)
DateTimeUTC,F1_M11,P_M11,Q1_M11,Q2_M11,T1_M11,T2_M11,T3_M11,T4_M11,T5_M11,U1_M11,ZSPAN_M11,X0_M11,X2_M11,X1_M11
2024-02-04 11:00:00,SystemResetWarning,0823.0,5.01,000.00,018.5,017.9,000.0,026.8,020.0,22.8,0000.0,0008.80,0003.34,0002.41
2024-02-04 11:01:00,SystemResetWarning,0823.1,5.00,000.00,018.4,017.9,000.0,026.8,020.0,22.8,0000.0,0008.49,0003.31,0002.32
2024-02-04 11:02:00,SystemResetWarning,0822.9,4.99,000.00,018.4,017.9,000.0,026.8,020.0,22.7,0000.0,0008.30,0003.34,0002.29
2024-02-04 11:03:00,SystemResetWarning,0822.8,5.00,000.00,018.4,017.9,000.0,026.8,020.0,22.6,0000.0,0008.66,0003.36,0002.30
2024-02-04 11:04:00,SystemResetWarning,0822.9,5.00,000.00,018.4,017.9,000.0,026.8,020.0,22.6,0000.0,0009.79,0003.41,0002.27
2024-02-04 11:05:00,SystemResetWarning,0822.9,5.01,000.00,018.4,017.9,000.0,026.8,020.0,22.6,0000.0,0010.13,0003.42,0002.22
2024-02-04 11:06:00,SystemResetWarning,0822.9,5.01,000.00,018.4,017.9,000.0,026.8,020.0,22.6,0000.0,0010.73,0003.37,0002.11
2024-02-04 11:07:00,SystemResetWarning,0823.0,5.00,000.00,018.4,017.9,000.0,026.8,020.0,22.7,0000.0,0010.63,0003.32,0001.99
2024-02-04 11:08:00,SystemResetWarning,0823.0,4.99,000.00,018.4,017.8,000.0,026.8,020.0,22.8,0000.0,0010.53,0003.27,0001.88
2024-02-04 11:09:00,SystemResetWarning,0822.9,5.00,000.00,018.4,017.8,000.0,026.8,020.0,22.8,0000.0,0010.33,0003.19,0001.79
2024-02-04 11:10:00,SystemResetWarning,0823.0,5.00,000.00,018.4,017.8,000.0,026.8,020.0,22.8,0000.0,0010.50,0003.12,0001.75
2024-02-04 11:11:00,SystemResetWarning,0822.9,5.00,000.00,018.4,017.8,000.0,026.8,020.0,22.8,0000.0,0010.33,0003.01,0001.72
2024-02-04 11:12:00,SystemResetWarning,0823.0,5.02,000.00,018.4,017.8,000.0,026.8,020.0,22.8,0000.0,0010.73,0002.92,0001.70
2024-02-04 11:13:00,SystemResetWarning,0823.0,5.00,000.00,018.4,017.8,000.0,026.8,020.0,22.8,0000.0,0011.18,0002.81,0001.65
2024-02-04 11:14:00,SystemResetWarning,0823.0,4.99,000.00,018.4,017.8,000.0,026.8,020.0,22.9,0000.0,0010.78,0002.60,0001.57
2024-02-04 11:15:00,SystemResetWarning,0823.1,4.99,000.00,018.4,017.8,000.0,026.8,020.0,22.9,0000.0,0009.39,0002.47,0001.51
2024-02-04 11:16:00,SystemResetWarning,0823.1,5.01,000.00,018.3,017.8,000.0,026.8,020.0,22.9,0000.0,0008.93,0002.31,0001.46
2024-02-04 11:17:00,SystemResetWarning,0823.1,5.00,000.00,018.3,017.8,000.0,026.8,020.0,22.8,0000.0,0008.27,0002.27,0001.47
2024-02-04 11:18:00,SystemResetWarning,0823.3,5.01,000.00,018.3,017.8,000.0,026.8,020.0,22.7,0000.0,0008.08,0002.24,0001.48
2024-02-04 11:19:00,SystemResetWarning,0823.3,5.00,000.00,018.3,017.8,000.0,026.8,020.0,22.6,0000.0,0008.06,0002.21,0001.48
2024-02-04 11:20:00,SystemResetWarning,0823.2,5.00,000.00,018.3,017.7,000.0,026.8,020.0,22.5,0000.0,0008.01,0002.14,0001.47
2024-02-04 11:21:00,SystemResetWarning,0823.2,5.00,000.00,018.3,017.7,000.0,026.8,020.0,22.2,0000.0,0007.69,0002.09,0001.45
2024-02-04 11:22:00,SystemResetWarning,0823.2,5.00,000.00,018.3,017.7,000.0,026.8,020.0,22.1,0000.0,0007.18,0002.01,0001.41
2024-02-04 11:23:00,SystemResetWarning,0823.2,5.00,000.00,018.3,017.7,000.0,026.8,020.0,22.1,0000.0,0006.41,0001.94,0001.36
2024-02-04 11:24:00,SystemResetWarning,0823.3,5.00,000.00,018.3,017.7,000.0,026.8,020.0,22.0,0000.0,0004.65,0001.79,0001.29
2024-02-04 11:25:00,SystemResetWarning,0823.3,5.00,000.00,018.3,017.7,000.0,026.8,020.0,21.9,0000.0,0004.66,0001.72,0001.24
2024-02-04 11:26:00,SystemResetWarning,0823.3,5.00,000.00,018.3,017.7,000.0,026.8,020.0,21.9,0000.0,0004.33,0001.64,0001.21
2024-02-04 11:27:00,SystemResetWarning,0823.3,5.01,000.00,018.3,017.6,000.0,026.8,020.0,21.7,0000.0,0004.03,0001.57,0001.19
2024-02-04 11:28:00,SystemResetWarning,0823.3,5.00,000.00,018.3,017.6,000.0,026.8,020.0,21.8,0000.0,0003.75,0001.52,0001.18
2024-02-04 11:29:00,SystemResetWarning,0823.4,5.00,000.00,018.3,017.6,000.0,026.8,020.0,21.7,0000.0,0003.48,0001.45,0001.15
2024-02-04 11:30:00,SystemResetWarning,0823.4,5.00,000.00,018.3,017.6,000.0,026.8,020.0,21.4,0000.0,0003.22,0001.37,0001.13
2024-02-04 11:31:00,SystemResetWarning,0823.4,5.01,000.00,018.3,017.6,000.0,026.8,020.0,21.3,0000.0,0003.74,0001.33,0001.12
2024-02-04 11:32:00,SystemResetWarning,0823.4,5.00,000.00,018.3,017.6,000.0,026.8,020.0,20.9,0000.0,0003.67,0001.28,0001.11
2024-02-04 11:33:00,SystemResetWarning,0823.4,4.99,000.00,018.3,017.6,000.0,026.8,020.0,20.7,0000.0,0003.66,0001.28,0001.10
2024-02-04 11:34:00,SystemResetWarning,0823.4,5.00,000.00,018.3,017.6,000.0,026.8,020.0,20.5,0000.0,0003.65,0001.28,0001.10
2024-02-04 11:35:00,SystemResetWarning,0823.5,5.02,000.00,018.3,017.8,000.0,026.9,020.2,20.4,0000.0,0003.60,0001.29,0001.09
2024-02-04 11:36:00,SystemResetWarning,0823.5,4.99,000.00,018.5,018.5,000.0,027.0,020.6,20.2,0000.0,0002.52,0001.27,0001.08
2024-02-04 11:37:00,SystemResetWarning,0823.6,4.99,000.00,018.7,019.0,000.0,027.0,020.9,19.9,0000.0,0002.46,0001.23,0001.06
2024-02-04 11:38:00,SystemResetWarning,0823.6,4.99,000.00,018.7,019.0,000.0,027.0,020.8,19.7,0000.0,0002.42,0001.20,0001.03
2024-02-04 11:39:00,SystemResetWarning,0823.6,5.00,000.00,018.7,018.8,000.0,026.9,020.6,19.5,0000.0,0002.32,0001.14,0000.99
2024-02-04 11:40:00,SystemResetWarning,0823.6,5.02,000.00,018.7,018.7,000.0,026.9,020.5,19.4,0000.0,0002.25,0001.09,0000.96
2024-02-04 11:41:00,SystemResetWarning,0823.6,5.01,000.00,018.7,018.6,000.0,026.9,020.4,19.2,0000.0,0002.21,0001.06,0000.92
2024-02-04 11:42:00,SystemResetWarning,0823.6,5.00,000.00,018.7,018.5,000.0,026.9,020.4,19.3,0000.0,0002.07,0001.01,0000.87
2024-02-04 11:43:00,SystemResetWarning,0823.7,4.99,000.00,018.7,018.4,000.0,026.9,020.4,19.4,0000.0,0002.00,0000.97,0000.82
2024-02-04 11:44:00,SystemResetWarning,0823.7,5.00,000.00,018.7,018.3,000.0,026.9,020.3,19.4,0000.0,0001.88,0000.90,0000.77
2024-02-04 11:45:00,SystemResetWarning,0823.8,5.01,000.00,018.7,018.3,000.0,026.9,020.3,19.3,0000.0,0001.75,0000.85,0000.75
2024-02-04 11:46:00,SystemResetWarning,0823.8,5.01,000.00,018.7,018.2,000.0,026.9,020.3,19.7,0000.0,0001.67,0000.83,0000.74
2024-02-04 11:47:00,SystemResetWarning,0823.8,4.99,000.00,018.6,018.1,000.0,026.9,020.2,20.0,0000.0,0001.63,0000.81,0000.73
2024-02-04 11:48:00,SystemResetWarning,0823.8,5.00,000.00,018.6,018.1,000.0,026.9,020.2,20.0,0000.0,0001.67,0000.83,0000.74
2024-02-04 11:49:00,SystemResetWarning,0823.8,5.00,000.00,018.6,018.1,000.0,026.9,020.2,19.9,0000.0,0001.83,0000.93,0000.81
2024-02-04 11:50:00,SystemResetWarning,0823.8,5.01,000.00,018.6,018.1,000.0,026.9,020.2,19.9,0000.0,0001.92,0001.00,0000.86
2024-02-04 11:51:00,SystemResetWarning,0823.8,5.01,000.00,018.6,018.0,000.0,026.9,020.2,19.9,0000.0,0001.98,0001.05,0000.90
2024-02-04 11:52:00,SystemResetWarning,0823.8,5.01,000.00,018.5,018.0,000.0,026.9,020.2,19.9,0000.0,0002.03,0001.09,0000.93
2024-02-04 11:53:00,SystemResetWarning,0823.8,5.00,000.00,018.5,018.0,000.0,026.9,020.2,19.8,0000.0,0001.65,0001.14,0000.96
2024-02-04 11:54:00,SystemResetWarning,0823.8,4.99,000.00,018.5,018.0,000.0,026.9,020.1,19.9,0000.0,0001.54,0001.18,0001.00
2024-02-04 11:55:00,SystemResetWarning,0823.8,5.00,000.00,018.5,017.9,000.0,026.9,020.1,19.9,0000.0,0001.65,0001.24,0001.04
2024-02-04 11:56:00,SystemResetWarning,0823.8,5.00,000.00,018.5,017.9,000.0,026.9,020.1,19.9,0000.0,0001.74,0001.29,0001.07
2024-02-04 11:57:00,SystemResetWarning,0823.8,5.01,000.00,018.5,017.9,000.0,026.9,020.1,19.9,0000.0,0002.46,0001.34,0001.10
2024-02-04 11:58:00,SystemResetWarning,0823.8,5.00,000.00,018.5,017.9,000.0,026.9,020.1,19.9,0000.0,0002.76,0001.39,0001.13
2024-02-04 11:59:00,SystemResetWarning,0823.8,5.00,000.00,018.4,017.9,000.0,026.9,020.1,20.3,0000.0,0002.82,0001.43,0001.16
